Terminal Aerodrome Forecast
Issued by NWS

Home | Current Version | Previous Version | Text Only | Print | Product List | Glossary On
Versions: 1 2 3 4 5 6 7 8 9 10 11 12 13 14 15
000
FTUS45 KABQ 242320
TAFTCC
TAF
KTCC 242320Z 2500/2524 26023G34KT P6SM BKN200
     FM250200 24014G24KT P6SM BKN180
     FM251500 25024G36KT P6SM SCT080 BKN120
     FM252100 26028G40KT P6SM BKN080=

USA.gov is the U.S. government's official web portal to all federal, state and local government web resources and services.